Location: Maddington
(51.2000°N, 1.9167°W)
Time: 11:42:43
(UTC+00:00)

NOSS 2-2 (E) - Pass Details

Date: 25 January 2021
Orbit: 465 x 1741 km, 63.3° (Epoch: 16 January)

Event Time Altitude Azimuth Distance (km) Brightness Sun altitude
Rises 18:09:47 0° 313° (NW) 2,874 7.5 -12.9°
Reaches altitude 10° 18:12:02 10° 324° (NW) 2,104 6.6 -13.3°
Maximum altitude 18:16:18 31° 27° (NNE) 1,394 5.0 -13.9°
Enters shadow 18:19:15 20° 72° (ENE) 1,953 5.5 -14.4°
